Location: Jastrz?bniki
(50.3667°N, 20.3833°E)
Time: 11:04:52
(UTC+00:00)

Cosmos 1980 - Pass Details

Date: 05 August 2024
Orbit: 836 x 848 km, 71.0° (Epoch: 10 September)

Event Time Altitude Azimuth Distance (km) Brightness Sun altitude
Exits shadow 02:26:01 - 194° (SSW) 3,327 6.3 -7.1°
Reaches altitude 10° 02:28:19 10° 190° (S) 2,452 5.7 -6.8°
Maximum altitude 02:33:50 59° 113° (ESE) 973 4.3 -6.1°
Drops below altitude 10° 02:39:24 10° 35° (NE) 2,476 7.6 -5.4°
Sets 02:41:53 0° 32° (NNE) 3,417 8.3 -5.0°
